User: anonymous   Login
Location: Pine Mountain Observatory
(43.7910°N, 120.9377°W)
Time: 10:13:49
(UTC-07:00)
Language:

Meteor 2-19 Rocket - Orbit

View from above orbital plane
View from above orbital plane
View from above satellite
View from above satellite

Ground track
Ground track

The orbit data is extracted from the following two-line orbital elements,

1 20671U 90057B   15115.53235025  .00000053  00000-0  33773-4 0  9990
2 20671 082.5448 275.0099 0015202 003.3111 059.2199 13.84589172254622
Epoch (UTC): 25 April 2015 12:46:35
Eccentricity: 0.0015202
inclination: 82.5448°
perigee height: 936 km
apogee height: 959 km
right ascension of ascending node: 275.0099°
argument of perigee: 3.3111°
revolutions per day: 13.84589172
mean anomaly at epoch: 59.2199°
orbit number at epoch: 25462

The dashed part of the orbit path shows where the satellite is in the earth's shadow,  

DLR